Location: Curicchi
(45.0167°N, 12.0500°E)
Time: 05:52:58
(UTC+00:00)

Tiangong - Visible Passes

Search period start: 02 August 2021 00:00
Search period end: 12 August 2021 00:00
Orbit: 373 x 386 km, 41.5° (Epoch: 01 August)

Date Brightness Start Highest point End Pass type
(mag) Time Alt. Az. Time Alt. Az. Time Alt. Az.
08 Aug 3.3 03:19:26 10° SSW 03:21:30 16° SSE 03:23:35 10° ESE visible
09 Aug 3.7 02:20:17 10° SSE 02:20:21 10° SSE 02:20:58 10° SE visible
10 Aug 2.7 02:53:49 17° SSW 02:55:12 22° SSE 02:57:45 10° ESE visible
11 Aug 3.6 01:55:13 13° SE 01:55:13 13° SE 01:55:56 10° ESE visible
11 Aug 1.9 03:27:18 10° WSW 03:30:13 37° S 03:33:09 10° ESE visible
